Lexington Weather

Lexington, Massachusetts, USA

44°F
1/23/2020 12:48pm 
  • Lexington Conditions: Mostly cloudy
  • Temperature: 43.9°F / 6.6°CWarmer 3.1°F than last hour.
  • Dew Point: 21.7°FIncreased 0.1°Fsince last hour.
  • Relative Humidity: 41%Decreased 5.0% since last hour.
  • Wind: Calm, 10-min avg: Calm, gust: 1 mph
  • Barometer: 30.29 inFalling 0.02  inHg/hr Falling Slowly
  • Visibility: 10 miles
  • Rain Today: 0.02 in
  •   

Regional Weather Roundup
for Boston / Norton, MA

        
000
ASUS41 KBOX 212210
RWRBOX

REGIONAL WEATHER ROUNDUP
NATIONAL WEATHER SERVICE BOSTON/NORTON MA
500 PM EST TUE JAN 21 2020

NOTE:  "FAIR" INDICATES FEW OR NO CLOUDS BELOW 12,000 FEET WITH NO 
SIGNIFICANT WEATHER AND/OR OBSTRUCTIONS TO VISIBILITY.

MAZALL-212300-
EASTERN MASSACHUSETTS
  
CITY           SKY/WX    TMP DP  RH WIND       PRES   REMARKS
BOSTON         FAIR      24   3  40 N6        30.41R WCI  17          
BEVERLY        FAIR      23   0  36 CALM      30.39R                  
LAWRENCE       FAIR      20  -1  40 CALM      30.41R                  
BEDFORD        FAIR      23   0  36 E3        30.39R                  
BLUE HILL        N/A     19  -1  41 CALM      30.35R                  
NORWOOD        FAIR      23   3  42 CALM      30.40R                  
MARSHFIELD     FAIR      23   5  46 VRB3      30.41R                  
PLYMOUTH       FAIR      23   4  44 NW7       30.40R WCI  15          
TAUNTON        FAIR      24   1  36 CALM      30.39S                  
NEW BEDFORD    FAIR      25   1  35 VRB3      30.39R                  
$$

MAZALL-212300-
CAPE COD AND THE ISLANDS
  
CITY           SKY/WX    TMP DP  RH WIND       PRES   REMARKS
FALMOUTH       CLEAR     25   9  50 N6        30.38R WCI  18          
HYANNIS        FAIR      27  18  69 N7        30.37R WCI  19          
CHATHAM        FAIR      27  21  78 VRB5      30.38R WCI  22          
PROVINCETOWN   MOCLDY    27  21  78 NW10      30.40R WCI  17          
NANTUCKET      FAIR      29  22  75 N9        30.36S WCI  20          
MARTHAS VNYRD  CLOUDY    28   9  44 NW6       30.38R WCI  22          
$$
 
MAZALL-212300-
CENTRAL AND WESTERN MASSACHUSETTS
  
CITY           SKY/WX    TMP DP  RH WIND       PRES   REMARKS
WORCESTER      FAIR      21  -1  38 NW7       30.33R WCI  12          
FITCHBURG      FAIR      21  -1  38 NW5       30.39R WCI  15          
ORANGE         FAIR      22   1  40 W3        30.38R                  
SPRINGFIELD    PTCLDY    24  -1  34 N8        30.39R WCI  15          
WESTFIELD      FAIR      23   1  38 W10       30.40R WCI  12          
NORTH ADAMS    FAIR      13   0  56 W5        30.40R WCI   5          
PITTSFIELD     FAIR      17   0  47 W6        30.34R WCI   9          
$$
 
RIZALL-212300-
RHODE ISLAND
  
CITY           SKY/WX    TMP DP  RH WIND       PRES   REMARKS
PROVIDENCE     MOCLDY    26   2  35 N3        30.40R                  
NEWPORT        FAIR      26   3  37 N5        30.38R WCI  20          
BLOCK ISLAND   FAIR      27   7  42 N3        30.39R                  
SMITHFIELD     FAIR      22   5  48 CALM      30.37R                  
WESTERLY       FAIR      30   2  30 VRB5      30.40R WCI  25          
$$
 
CTZALL-212300-
CONNECTICUT
  
CITY           SKY/WX    TMP DP  RH WIND       PRES   REMARKS
BRADLEY INTL   FAIR      24   4  42 NW10      30.40R WCI  14          
HARTFORD       FAIR      28   4  35 NW5       30.41R WCI  23          
BRIDGEPORT     FAIR      29   1  30 NW12      30.41S WCI  19          
DANBURY        FAIR      26   4  38 N5        30.41R WCI  20          
GROTON         FAIR      26   3  37 N6        30.40R WCI  19          
NEW HAVEN      FAIR      30   4  33 NW7       30.40R WCI  23          
CHESTER        NOT AVBL                                               
MERIDEN        FAIR      27   0  31 W8G17     30.41R WCI  19          
WILLIMANTIC    FAIR      26   3  37 NW7       30.40R WCI  18          
OXFORD         FAIR      24   2  38 NW8       30.38R WCI  15          
$$

MEZ002-015-021-024-NHZ003-005-008-011-012-014-VTZ005-008-212300-
NORTHERN NEW ENGLAND
  
CITY           SKY/WX    TMP DP  RH WIND       PRES   REMARKS
PORTLAND ME    MOCLDY    21   6  52 S3        30.39R                  
BANGOR ME      FAIR      14   1  56 S5        30.37R WCI   6          
CONCORD NH     FAIR      21  -1  38 CALM      30.37S                  
MANCHESTER NH  FAIR      22  -1  36 N6        30.37R WCI  14          
NASHUA NH      FAIR      21   3  45 N3        30.40R                  
PORTSMOUTH NH  PTCLDY    22  -2  34 SW5       30.37R WCI  16          
JAFFREY NH     FAIR      16   2  54 CALM      30.33R                  
KEENE NH       FAIR      18   3  52 CALM      30.38S                  
BURLINGTON VT  MOCLDY    17   4  56 S7        30.39S WCI   8          
MT. WASHINGTON PTCLDY     5 -11  47 NW39        N/A  WCI -22          
$$

NYZ052-076-212300-
EASTERN NEW YORK
  
CITY           SKY/WX    TMP DP  RH WIND       PRES   REMARKS
ALBANY         FAIR      23   3  42 NW5       30.44R WCI  17          
NEW YORK CITY  MOCLDY    32   6  33 N8        30.42R WCI  25          
$$
 
ANZALL-212300-
MARINE OBSERVATIONS
  
STATION/POSITION TIME  TEMP    WIND        PRES    VSBY  WAVE
                       AIR SEA DIR/SP/G                  HT/PER
                 (UTC) (F)     (DEG/KT/KT) (MB)    (MI)  (FT/S)
BOSTON BUOY      2150   25 42  280/  6/  8 1029.2R         2/ 5
BUZZARDS BAY     2100   28     340/  9/  9 1029.1R
NANTUCKET SOUND  2140                        N/A           1/ 3
MASS BAY-STELLWA 2104   25 41  350/  6/  8 1027.5R  1 5/8  2/11
ISLE OF SHOALS   2100   24      80/  1/  3 1028.7S
S OF BLOCK IS    2200      45                N/A           2/10
$$

......................KEY.........................
  SKY/WX - SKY CONDITION/PRESENT WEATHER
  TMP    - TEMPERATURE IN FAHRENHEIT
  DWPT   - DEWPOINT IN FAHRENHEIT
  RH     - RELATIVE HUMIDITY IN PERCENT
  WIND   - DIRECTION AND SPEED IN MPH
  PRES   - MEAN SEA LEVEL PRESSURE IN INCHES OF HG
  WCI    - WIND CHILL INDEX
  VSB    - VISIBILITY IN MILES
  HX     - HEAT INDEX
  TC     - TEMPERATURE IN CELSIUS
  VRB    - VARIABLE WIND DIRECTION
  N/A    - NOT AVAILABLE
  
      

Other recent Regional Weather Roundups

Thu Jan 23, 12:10pm

Thu Jan 23, 12:01pm

Thu Jan 23, 11:10am

Thu Jan 23, 11:00am

Thu Jan 23, 10:10am

Thu Jan 23, 10:00am

Thu Jan 23, 9:10am

Thu Jan 23, 9:00am

Thu Jan 23, 8:10am

Thu Jan 23, 8:00am

Thu Jan 23, 7:10am

Thu Jan 23, 7:01am

Thu Jan 23, 6:10am

Thu Jan 23, 6:00am

Thu Jan 23, 5:10am

Thu Jan 23, 5:00am

Thu Jan 23, 4:10am

Thu Jan 23, 4:01am

Thu Jan 23, 3:10am

Thu Jan 23, 3:00am

Thu Jan 23, 2:10am

Thu Jan 23, 2:00am

Thu Jan 23, 1:10am

Thu Jan 23, 1:00am

Thu Jan 23, 12:10am

Thu Jan 23, 12:00am

Wed Jan 22, 11:10pm

Wed Jan 22, 11:01pm

Wed Jan 22, 10:10pm

Wed Jan 22, 10:00pm

Wed Jan 22, 9:10pm

Wed Jan 22, 9:00pm

Wed Jan 22, 8:10pm

Wed Jan 22, 8:01pm

Wed Jan 22, 7:10pm

Wed Jan 22, 7:00pm

Wed Jan 22, 6:10pm

Wed Jan 22, 6:01pm

Wed Jan 22, 5:10pm

Wed Jan 22, 5:00pm

Wed Jan 22, 4:10pm

Wed Jan 22, 4:00pm

Wed Jan 22, 3:10pm

Wed Jan 22, 3:00pm

Wed Jan 22, 2:10pm

Wed Jan 22, 2:00pm

Wed Jan 22, 1:10pm

Wed Jan 22, 1:00pm

Wed Jan 22, 12:10pm

Wed Jan 22, 12:00pm

Wed Jan 22, 11:10am

Wed Jan 22, 11:00am

Wed Jan 22, 10:10am

Wed Jan 22, 10:01am

Wed Jan 22, 9:10am

Wed Jan 22, 9:00am

Wed Jan 22, 8:10am

Wed Jan 22, 8:00am

Wed Jan 22, 7:10am

Wed Jan 22, 7:00am

Wed Jan 22, 6:10am

Wed Jan 22, 6:00am

Wed Jan 22, 5:10am

Wed Jan 22, 5:00am

Wed Jan 22, 4:10am

Wed Jan 22, 4:00am

Wed Jan 22, 3:10am

Wed Jan 22, 3:01am

Wed Jan 22, 2:10am

Wed Jan 22, 2:00am

Wed Jan 22, 1:10am

Wed Jan 22, 1:00am

Wed Jan 22, 12:10am

Wed Jan 22, 12:00am

Tue Jan 21, 11:10pm

Tue Jan 21, 11:00pm

Tue Jan 21, 10:10pm

Tue Jan 21, 10:00pm

Tue Jan 21, 9:10pm

Tue Jan 21, 9:01pm

Tue Jan 21, 8:10pm

Tue Jan 21, 8:00pm

Tue Jan 21, 7:10pm

Tue Jan 21, 7:00pm

Tue Jan 21, 6:10pm

Tue Jan 21, 6:01pm

Tue Jan 21, 5:00pm

Tue Jan 21, 4:10pm

Tue Jan 21, 4:00pm

Tue Jan 21, 3:10pm

Tue Jan 21, 3:01pm

Tue Jan 21, 2:10pm

Tue Jan 21, 2:00pm

Tue Jan 21, 1:10pm

Tue Jan 21, 1:00pm

Tue Jan 21, 12:10pm

Tue Jan 21, 12:00pm

Tue Jan 21, 11:10am

Tue Jan 21, 11:00am

Tue Jan 21, 10:10am

Tue Jan 21, 10:00am

Tue Jan 21, 9:10am

Tue Jan 21, 9:00am

Tue Jan 21, 8:10am

Tue Jan 21, 8:00am

Tue Jan 21, 7:10am

Tue Jan 21, 7:00am

Tue Jan 21, 6:10am

Tue Jan 21, 6:00am

Tue Jan 21, 5:10am

Tue Jan 21, 5:00am

Tue Jan 21, 4:10am

Tue Jan 21, 4:00am

Tue Jan 21, 3:10am

Tue Jan 21, 3:00am

Tue Jan 21, 2:10am

Tue Jan 21, 2:01am

Tue Jan 21, 1:10am

Tue Jan 21, 1:00am

Tue Jan 21, 12:10am

Tue Jan 21, 12:00am

Mon Jan 20, 11:10pm

Mon Jan 20, 11:00pm

Mon Jan 20, 10:10pm

Mon Jan 20, 10:00pm

Mon Jan 20, 9:10pm

Mon Jan 20, 9:00pm

Mon Jan 20, 8:10pm

Mon Jan 20, 8:00pm

Mon Jan 20, 7:10pm

Mon Jan 20, 7:00pm

Mon Jan 20, 6:10pm

Mon Jan 20, 6:00pm

Mon Jan 20, 5:10pm

Mon Jan 20, 5:00pm

Mon Jan 20, 4:10pm

Mon Jan 20, 4:01pm

Mon Jan 20, 3:10pm

Mon Jan 20, 3:00pm

Mon Jan 20, 2:10pm

Mon Jan 20, 2:00pm

Mon Jan 20, 1:10pm

Mon Jan 20, 1:00pm

Meta data:

ID: 524f99c5-4324-4357-bae1-66bda9d4cf2a
Link: https://api.weather.gov/products/524f99c5-4324-4357-bae1-66bda9d4cf2a